Breckenridge, TX

8:10 PM CDT on August 26, 2016 (GMT -0500)
Stephens County

Weather History for KBKD - March, 2014

Change the Weather History Date:

Sunday, March 2, 2014

  Actual Average (KABI) Record (KABI)
Temperature  
Mean Temperature 28 °F 52 °F  
Max Temperature 39 °F 64 °F 93 °F (1974)
Min Temperature 16 °F 41 °F 10 °F (1980)
Degree Days  
Heating Degree Days 37 13  
Month to date heating degree days 26  
Since 1 July heating degree days 2159  
Cooling Degree Days 0 0  
Month to date cooling degree days 0  
Year to date cooling degree days 5  
Moisture  
Dew Point 21 °F    
Average Humidity 89    
Maximum Humidity 99    
Minimum Humidity 72    
Precipitation  
Precipitation 0.00 in 0.06 in 1.16 in (1886)
Month to date precipitation 0.11  
Year to date precipitation 2.49  
Sea Level Pressure  
Sea Level Pressure 30.22 in    
Wind  
Wind Speed 15 mph (North)    
Max Wind Speed 21 mph    
Max Gust Speed 30 mph    
Visibility 6 miles    
Events Snow , Thunderstorm    
T = Trace of Precipitation, MM = Missing Value Source: NWS Daily Summary

Daily Weather History Graph

Daily Weather History Graph

Search for Another Location

Airport or City:

Trip Planner

Search our weather history database for the weather conditions in past years. The results will help you decide how hot, cold, wet, or windy it might be!

Date:

Astronomy

Mar. 02, 2014 Rise Set
Actual Time 7:02 AM CST 6:33 PM CST
Civil Twilight 6:37 AM CST 6:58 PM CST
Nautical Twilight 6:08 AM CST 7:26 PM CST
Astronomical Twilight 5:40 AM CST 7:55 PM CST
Moon 7:41 AM CST (3/2) 8:22 PM CST (3/2)
Length of Visible Light 12h 21m
Length of Day
11h 31m
Waxing Crescent, 3% of the Moon is Illuminated
Mar 2
Waxing Crescent
Mar 8
First Quarter
Mar 16
Full
Mar 23
Last Quarter
Mar 30
New

Hourly Weather History & Observations

Time (CST) Temp. Windchill Dew Point Humidity Pressure Visibility Wind Dir Wind Speed Gust Speed Precip Events Conditions
12:10 AM 39.7 °F 32.7 °F 37.9 °F 93% 30.03 in 5.0 mi North 11.5 mph 21.9 mph N/A   Overcast
12:30 AM 38.5 °F 29.9 °F 36.7 °F 93% 30.05 in 5.0 mi North 15.0 mph 21.9 mph N/A   Overcast
12:50 AM 37.0 °F 27.7 °F 35.6 °F 95% 30.05 in 5.0 mi North 16.1 mph 23.0 mph N/A   Overcast
1:10 AM 36.7 °F 26.3 °F 35.2 °F 95% 30.07 in 7.0 mi North 19.6 mph 25.3 mph N/A   Overcast
1:30 AM 35.6 °F 25.5 °F 33.8 °F 93% 30.08 in 7.0 mi North 17.3 mph 25.3 mph N/A   Overcast
1:50 AM 34.7 °F 27.5 °F 33.8 °F 97% 30.09 in 4.0 mi North 9.2 mph 18.4 mph N/A   Overcast
2:10 AM 33.8 °F 24.3 °F 32.9 °F 96% 30.09 in 4.0 mi North 13.8 mph 21.9 mph N/A   Overcast
2:30 AM 32.4 °F 22.5 °F 32.0 °F 99% 30.09 in 4.0 mi North 13.8 mph 24.2 mph N/A   Light Drizzle
2:50 AM 32.0 °F 21.6 °F 31.6 °F 99% 30.10 in 4.0 mi North 15.0 mph 25.3 mph N/A   Overcast
3:10 AM 31.1 °F 21.9 °F 30.7 °F 99% 30.11 in 4.0 mi North 11.5 mph 20.7 mph N/A   Overcast
3:30 AM 30.2 °F 19.3 °F 29.3 °F 96% 30.11 in 5.0 mi North 15.0 mph 25.3 mph N/A   Overcast
3:50 AM 29.3 °F 17.7 °F 28.4 °F 96% 30.11 in 7.0 mi NNE 16.1 mph 21.9 mph N/A   Overcast
4:10 AM 29.3 °F 20.8 °F 28.6 °F 97% 30.11 in 7.0 mi North 9.2 mph - N/A   Overcast
4:35 AM 28.9 °F 18.2 °F 28.2 °F 97% 30.12 in 7.0 mi North 13.8 mph 21.9 mph N/A   Overcast
4:50 AM 28.6 °F 16.8 °F 27.7 °F 96% 30.13 in 7.0 mi North 16.1 mph 21.9 mph N/A   Overcast
5:10 AM 28.4 °F 16.6 °F 27.9 °F 98% 30.14 in 4.0 mi North 16.1 mph 23.0 mph N/A   Overcast
5:30 AM 28.8 °F 17.0 °F 28.4 °F 99% 30.15 in 4.0 mi North 16.1 mph 21.9 mph N/A   Overcast
5:50 AM 28.2 °F 17.2 °F 27.5 °F 97% 30.16 in 4.0 mi North 13.8 mph 21.9 mph N/A   Overcast
6:10 AM 28.2 °F 17.2 °F 27.5 °F 97% 30.17 in 4.0 mi North 13.8 mph 25.3 mph N/A   Overcast
6:30 AM 28.0 °F 15.7 °F 27.5 °F 98% 30.16 in 4.0 mi North 17.3 mph 21.9 mph N/A   Overcast
6:50 AM 26.4 °F 14.0 °F 25.7 °F 97% 30.17 in 4.0 mi North 16.1 mph 23.0 mph N/A   Overcast
7:10 AM 25.7 °F 15.1 °F 25.3 °F 99% 30.18 in 4.0 mi North 11.5 mph 19.6 mph N/A   Overcast
7:30 AM 25.5 °F 12.9 °F 24.8 °F 97% 30.18 in 3.0 mi North 16.1 mph 21.9 mph N/A   Overcast
7:50 AM 25.0 °F 13.1 °F 24.4 °F 98% 30.18 in 3.0 mi North 13.8 mph 21.9 mph N/A   Overcast
8:10 AM 24.6 °F 12.7 °F 24.1 °F 98% 30.20 in 3.0 mi North 13.8 mph 21.9 mph N/A   Overcast
8:30 AM 23.9 °F 11.2 °F 23.5 °F 99% 30.20 in 4.0 mi North 15.0 mph - N/A   Overcast
8:50 AM 23.9 °F 12.9 °F 23.4 °F 98% 30.20 in 4.0 mi North 11.5 mph 18.4 mph N/A   Overcast
9:10 AM 23.5 °F 11.8 °F 23.0 °F 98% 30.20 in 4.0 mi North 12.7 mph 23.0 mph N/A   Overcast
9:30 AM 23.5 °F 11.8 °F 23.0 °F 98% 30.21 in 5.0 mi NNE 12.7 mph 19.6 mph N/A   Overcast
9:50 AM 23.0 °F 9.6 °F 22.1 °F 96% 30.21 in 7.0 mi North 16.1 mph 24.2 mph N/A   Overcast
10:15 AM 22.1 °F 8.5 °F 21.2 °F 96% 30.22 in 4.0 mi North 16.1 mph 20.7 mph N/A   Overcast
10:30 AM 22.1 °F 10.6 °F 21.2 °F 96% 30.22 in 5.0 mi North 11.5 mph 19.6 mph N/A   Overcast
10:50 AM 21.7 °F 9.0 °F 20.8 °F 96% 30.23 in 3.0 mi North 13.8 mph 20.7 mph N/A   Overcast
11:10 AM 21.7 °F 10.2 °F 21.0 °F 97% 30.22 in 2.5 mi North 11.5 mph 18.4 mph N/A   Overcast
11:30 AM 20.7 °F 6.1 °F 19.9 °F 97% 30.24 in 2.5 mi NNW 17.3 mph 20.7 mph N/A   Overcast
11:50 AM 20.3 °F 7.7 °F 19.4 °F 96% 30.23 in 2.5 mi NNW 12.7 mph 23.0 mph N/A   Overcast
12:10 PM 20.1 °F 6.4 °F 18.9 °F 95% 30.24 in 3.0 mi North 15.0 mph 23.0 mph N/A   Overcast
12:30 PM 20.3 °F 5.7 °F 19.0 °F 95% 30.23 in 2.0 mi NNW 17.3 mph 23.0 mph N/A Snow Light Snow
12:50 PM 19.8 °F 3.7 °F 18.3 °F 94% 30.24 in 2.0 mi NNW 20.7 mph 28.8 mph N/A Snow Light Snow
1:10 PM 19.9 °F 8.6 °F 17.4 °F 90% 30.24 in 1.2 mi NNW 10.4 mph 24.2 mph N/A Snow , Thunderstorm Light Thunderstorms and Snow
1:30 PM 20.7 °F 5.3 °F 18.1 °F 90% 30.25 in 1.5 mi NNW 19.6 mph 27.6 mph N/A Snow Light Snow
1:50 PM 19.9 °F 3.9 °F 16.5 °F 87% 30.24 in 4.0 mi NNW 20.7 mph 28.8 mph N/A Snow Light Snow
2:10 PM 19.9 °F 4.3 °F 16.7 °F 87% 30.24 in 2.5 mi NNW 19.6 mph 29.9 mph N/A Snow Light Snow
2:30 PM 20.5 °F 5.0 °F 17.1 °F 87% 30.24 in 2.5 mi NNW 19.6 mph 25.3 mph N/A Snow Light Snow
2:50 PM 20.3 °F 4.4 °F 16.7 °F 86% 30.23 in 5.0 mi North 20.7 mph 27.6 mph N/A Snow Light Snow
3:15 PM 21.0 °F 12.4 °F 16.9 °F 84% 30.20 in 7.0 mi North 6.9 mph - N/A Snow Light Snow
3:30 PM 21.9 °F 9.8 °F 17.2 °F 82% 30.19 in 10.0 mi NNE 12.7 mph 19.6 mph N/A   Overcast
3:55 PM 22.6 °F 11.9 °F 17.8 °F 82% 30.20 in 10.0 mi North 10.4 mph 17.3 mph N/A   Overcast
4:10 PM 22.8 °F 9.4 °F 17.6 °F 80% 30.20 in 10.0 mi NNW 16.1 mph 19.6 mph N/A   Overcast
4:30 PM 22.1 °F 8.0 °F 17.1 °F 81% 30.23 in 10.0 mi NNW 17.3 mph 23.0 mph N/A   Overcast
4:50 PM 21.9 °F 8.2 °F 16.7 °F 80% 30.17 in 10.0 mi NNE 16.1 mph 25.3 mph N/A   Overcast
5:10 PM 21.6 °F 7.3 °F 16.2 °F 80% 30.22 in 10.0 mi North 17.3 mph 26.5 mph N/A   Overcast
5:30 PM 21.4 °F 6.6 °F 16.5 °F 82% 30.24 in 10.0 mi North 18.4 mph 27.6 mph N/A   Overcast
5:50 PM 20.8 °F 5.9 °F 15.8 °F 81% 30.29 in 10.0 mi NNW 18.4 mph 25.3 mph N/A   Overcast
6:10 PM 20.7 °F 6.6 °F 15.6 °F 81% 30.27 in 4.0 mi North 16.1 mph 25.3 mph N/A Snow Light Snow
6:30 PM 20.3 °F 9.0 °F 15.6 °F 82% 30.28 in 5.0 mi North 10.4 mph 19.6 mph N/A Snow Light Snow
6:50 PM 20.3 °F 5.7 °F 14.5 °F 78% 30.29 in 10.0 mi North 17.3 mph 21.9 mph N/A   Overcast
7:10 PM 19.9 °F 5.7 °F 14.2 °F 78% 30.30 in 7.0 mi North 16.1 mph 25.3 mph N/A Snow Light Snow
7:30 PM 19.8 °F 6.5 °F 13.1 °F 75% 30.31 in 10.0 mi North 13.8 mph 25.3 mph N/A   Overcast
7:50 PM 19.4 °F 5.5 °F 11.8 °F 72% 30.32 in 10.0 mi North 15.0 mph 28.8 mph N/A   Overcast
8:10 PM 19.2 °F 4.7 °F 12.0 °F 74% 30.33 in 10.0 mi North 16.1 mph 27.6 mph N/A   Overcast
8:30 PM 19.0 °F 5.0 °F 12.0 °F 74% 30.34 in 10.0 mi North 15.0 mph 23.0 mph N/A Snow Light Snow
8:55 PM 18.1 °F 2.4 °F 10.8 °F 73% 30.36 in 10.0 mi NNW 18.4 mph 24.2 mph N/A   Overcast
9:10 PM 18.0 °F 3.6 °F 10.6 °F 73% 30.36 in 10.0 mi North 15.0 mph 23.0 mph N/A   Overcast
9:30 PM 18.1 °F 5.0 °F 10.8 °F 73% 30.37 in 10.0 mi North 12.7 mph 20.7 mph N/A   Overcast
9:50 PM 18.1 °F 4.4 °F 10.8 °F 73% 30.37 in 10.0 mi North 13.8 mph 20.7 mph N/A   Overcast
10:10 PM 17.6 °F 3.2 °F 10.2 °F 73% 30.37 in 10.0 mi North 15.0 mph 25.3 mph N/A   Overcast
10:30 PM 17.6 °F 2.2 °F 10.4 °F 73% 30.39 in 10.0 mi North 17.3 mph 25.3 mph N/A   Overcast
10:50 PM 17.6 °F 2.7 °F 11.3 °F 76% 30.40 in 7.0 mi North 16.1 mph 24.2 mph N/A Snow Light Snow
11:10 PM 17.1 °F 2.0 °F 10.0 °F 74% 30.40 in 10.0 mi North 16.1 mph 26.5 mph N/A Snow Light Snow
11:30 PM 17.2 °F 3.3 °F 10.4 °F 75% 30.41 in 10.0 mi North 13.8 mph 20.7 mph N/A Snow Light Snow
11:50 PM 16.7 °F 1.5 °F 9.1 °F 72% 30.41 in 10.0 mi North 16.1 mph 24.2 mph N/A   Overcast